Preview of NWS' New Version of Forecast
This preview is not operational and should not be used for support decisions.
Latest weather observations around

Hawthorne, Hawthorne Municipal Airport (KHHR)

Using English Units (Switch to International System of Units)
Date/ Time (PDT) Wind (mph) Vis. (mi) Weather Sky Cond. Temp (°F) Rel. Humidity Wind Chill (°F) Heat Index (°F) Pressure Precip. (in)
Air Dwpt 6 hour Altimeter (inHg) Sea level (inHg) 1 hr 3 hr 6 hr
Max Min
Jul 17 10:53 SSW 8 10 Partly Cloudy SCT023 73 60     64%   73 29.97 29.96      
Jul 17 09:53 SE 8 10 Mostly Clear FEW020 71 59     66%   71 29.95 29.95      
Jul 17 09:34 SSW 6 10 Partly Cloudy SCT018 70 59     68%     29.95        
Jul 17 08:53 SSW 6 10 Cloudy OVC017 69 59     70%     29.94 29.94      
Jul 17 07:53 5 10 Cloudy OVC016 68 59     73%     29.93 29.92      
Jul 17 06:53 SE 6 10 Cloudy OVC016 67 59     76%     29.91 29.9      
Jul 17 05:53 ESE 3 10 Cloudy OVC015 67 58     73%     29.88 29.88      
Jul 17 05:08 Calm 10 Cloudy OVC015 67 59     76%     29.87        
Jul 17 04:53 E 6 10 Cloudy OVC014 67 59     76%     29.86 29.85      
Jul 17 03:53 ESE 8 10 Cloudy OVC014 67 59     76%     29.85 29.85      
Jul 17 02:53 ESE 6 10 Cloudy OVC013 67 59     76%     29.86 29.85      
Jul 17 01:53 ESE 8 10 Cloudy OVC012 66 59     78%     29.86 29.85      
Jul 17 00:53 ESE 7 10 Cloudy OVC011 67 60     79%     29.86 29.86      
Jul 16 23:53 ESE 6 9 Mostly Cloudy BKN010 68 61     78%     29.86 29.86      
Jul 16 23:44 ESE 7 8 Clear   68 61     78%     29.86        
Jul 16 22:53 SE 3 10 Clear   68 61     78%     29.86 29.85      
Jul 16 21:53 Calm 10 Clear   68 61     78%     29.86 29.85      
Jul 16 20:53 WSW 6 10 Clear CLR 69 61     75%     29.84 29.84      
Jul 16 19:53 SW 7 9 Clear CLR 70 62     76%     29.82 29.82      
Jul 16 18:53 WSW 8 9 Clear CLR 73 62     68%   73 29.82 29.81      
Jul 16 15:53 WSW 8 9 Clear CLR 74 62     66%   74 29.84 29.84      
Jul 16 14:53 WSW 10 10 Clear CLR 77 62     60%   77 29.85 29.85      
Jul 16 14:39 WSW 8 1.75 Haze CLR 77 62     60%   77 29.86        
Jul 16 13:53 7 9 Clear CLR 77 62     60%   77 29.86 29.86      
Jul 16 12:53 W 8 8 Clear CLR 78 63     60%   78 29.87 29.86      
Jul 16 11:53 WSW 6 7 Clear CLR 75 63     66%   75 29.87 29.86      
Jul 16 10:53 5 6 Haze CLR 75 62     64%   75 29.87 29.86      
Jul 16 09:53 W 3 6 Haze CLR 70 62     76%     29.87 29.86      
Jul 16 09:04 3 4 Haze SCT007 67 61     81%     29.86        
Jul 16 08:53 SW 5 4 Haze BKN007 67 61     81%     29.86 29.86      
Jul 16 08:24 Calm 4 Haze BKN005 66 61     84%     29.85        
Jul 16 08:02 Calm 3 Haze BKN004 BKN008 66 61     84%     29.85        
Jul 16 07:53 W 5 4 Fog/Mist SCT006 65 61     87%     29.84 29.84      
Jul 16 07:51 WSW 5 4 Haze FEW006 66 61     83%     29.84        
Jul 16 06:53 Calm 4 Haze CLR 64 59     84%     29.83 29.83      
Jul 16 05:53 S 3 8 Clear CLR 64 59     84%     29.82 29.82      
Jul 16 04:53 Calm 8 Clear CLR 66 59     78%     29.81 29.81      
Jul 16 03:53 Calm 8 Clear CLR 66 59     78%     29.81 29.81      
Jul 16 02:53 Calm 8 Clear CLR 66 59     78%     29.81 29.81      
Jul 16 01:53 Calm 6 Haze CLR 65 60     84%     29.82 29.82      
Jul 16 00:53 Calm 6 Haze CLR 65 60     84%     29.84 29.84      
Jul 15 23:53 SW 3 8 Clear CLR 65 60     84%     29.85 29.85      
Jul 15 22:53 Calm 8 Clear CLR 67 60     79%     29.85 29.85      
Jul 15 21:53 WSW 3 8 Clear   67 60     79%     29.85 29.85      
Jul 15 20:53 5 8 Clear CLR 67 60     79%     29.84 29.84      
Jul 15 19:53 WNW 5 7 Clear CLR 68 60     76%     29.84 29.83      
Jul 15 18:53 WNW 6 9 Clear CLR 70 61     73%     29.83 29.83      
Jul 15 17:53 W 10 10 Clear CLR 71 60     68%   71 29.84 29.83      
Jul 15 16:53 WSW 11 9 Clear CLR 72 61     68%   72 29.86 29.85      
Jul 15 15:53 7 10 Clear CLR 74 61     64%   74 29.87 29.87      
Jul 15 14:53 WSW 11 10 Clear CLR 73 61     66%   73 29.89 29.89      
Jul 15 13:53 W 11 10 Clear CLR 73 61     66%   73 29.91 29.9      
Jul 15 12:53 WSW 9 6 Haze CLR 74 61     64%   74 29.91 29.91      
Jul 15 11:53 W 11 5 Haze CLR 74 62     66%   74 29.92 29.92      
Jul 15 10:53 WSW 10 5 Haze CLR 75 62     64%   75 29.93 29.92      
Jul 15 09:53 ENE 3 4 Haze CLR 73 61     66%   73 29.93 29.93      
Jul 15 09:11 Calm 3 Haze FEW009 68 61     78%     29.94        
Jul 15 08:53 SSW 3 3 Haze BKN008 67 61     81%     29.94 29.94      
Jul 15 08:45 Calm 3 Haze OVC007 66 61     84%     29.94        
Jul 15 08:11 Calm 2.5 Haze OVC006 66 61     84%     29.95        
Jul 15 07:53 Calm 2.5 Fog/Mist OVC005 65 61     87%     29.95 29.94      
Jul 15 06:53 SSW 5 2.5 Haze OVC005 65 60     84%     29.94 29.93      
Jul 15 06:42 WSW 5 2.5 Haze OVC005 66 61     84%     29.93        
Jul 15 06:21 3 2.5 Haze OVC006 66 61     84%     29.93        
Jul 15 05:53 Calm 4 Haze OVC006 66 61     84%     29.92 29.92      
Jul 15 04:53 Calm 4 Fog/Mist OVC006 65 61     87%     29.91 29.91      
Jul 15 03:53 WSW 3 5 Haze OVC006 65 60     84%     29.92 29.91      
Jul 15 03:05 WSW 3 6 Haze BKN007 BKN012 65 60     84%     29.92        
Jul 15 02:53 WSW 3 6 Haze FEW007 FEW013 65 60     84%     29.93 29.92      
Jul 15 01:53 WSW 5 7 Clear CLR 65 60     84%     29.93 29.93      
Jul 15 00:53 Calm 6 Haze CLR 66 60     81%     29.95 29.94      
Jul 15 00:40 Calm 6 Haze SCT009 66 60     81%     29.95        
Jul 15 00:15 Calm 6 Haze BKN009 66 60     81%     29.96        
Jul 14 23:53 Calm 7 Partly Cloudy SCT008 66 60     81%     29.96 29.96      
Jul 14 23:42 Calm 7 Mostly Clear FEW008 66 60     81%     29.97        
Jul 14 22:53 Calm 8 Cloudy OVC008 66 60     81%     29.97 29.96      
Jul 14 21:53 SW 5 10 Cloudy OVC008 66 60     81%     29.96 29.96      
Jul 14 20:53 WSW 7 9 Cloudy OVC008 66 60     81%     29.95 29.94      
Jul 14 19:53 WSW 7 9 Cloudy OVC008 66 60     81%     29.93 29.93      
Jul 14 19:41 SW 7 9 Cloudy OVC008 66 60     81%     29.93        
Jul 14 18:53 WSW 9 8 Mostly Cloudy BKN011 68 60     76%     29.92 29.92      
Jul 14 17:53 WSW 11 9 Clear CLR 69 60     73%     29.93 29.92      
Jul 14 16:53 W 11 9 Clear CLR 71 60     68%   71 29.93 29.93      
Jul 14 15:53 W 10 9 Clear CLR 74 61     64%   74 29.95 29.94      
Jul 14 14:53 WSW 11 5 Haze CLR 75 61     62%   75 29.96 29.95      
Jul 14 13:53 WNW 9 5 Haze CLR 76 62     62%   76 29.96 29.96      
Jul 14 12:53 WSW 10 5 Haze CLR 74 61     64%   74 29.97 29.97      
Jul 14 11:53 W 9 5 Haze CLR 75 62     64%   75 29.98 29.97      
Jul 14 10:53 WSW 8 5 Haze CLR 73 61     66%   73 29.97 29.97      
Jul 14 09:53 WSW 8 6 Haze CLR 74 61     64%   74 29.97 29.96      
Jul 14 08:53 Calm 6 Haze FEW013 69 61     75%     29.97 29.96      
Jul 14 08:48 Calm 6 Haze SCT013 70 61     73%     29.97        
Jul 14 07:53 Calm 6 Haze OVC011 67 61     81%     29.97 29.96      
Jul 14 06:53 Calm 5 Haze OVC010 66 60     81%     29.96 29.96      
Jul 14 06:33 Calm 6 Haze OVC010 67 60     79%     29.96        
Jul 14 05:53 Calm 7 Cloudy OVC009 66 60     81%     29.95 29.95      
Jul 14 05:34 Calm 7 Cloudy OVC010 66 60     81%     29.95        
Jul 14 04:53 Calm 7 Cloudy OVC009 67 60     79%     29.95 29.95      
Jul 14 04:48 NE 3 7 Cloudy OVC009 66 61     83%     29.95        
Jul 14 04:35 Calm 6 Haze OVC010 66 60     81%     29.95        
Jul 14 03:53 ESE 5 7 Cloudy OVC009 66 60     81%     29.95 29.94      
Jul 14 02:53 Calm 6 Haze OVC008 66 60     81%     29.94 29.94      
Jul 14 01:53 Calm 7 Cloudy OVC008 66 61     84%     29.95 29.95      
Jul 14 00:53 E 5 6 Haze OVC009 66 60     81%     29.95 29.94      
Jul 14 00:31 ESE 3 7 Cloudy OVC010 67 60     79%     29.95        
Jul 13 23:53 Calm 7 Cloudy OVC009 66 60     81%     29.95 29.94      
Jul 13 22:53 W 3 7 Cloudy OVC009 66 60     81%     29.93 29.93      
Jul 13 21:53 WSW 5 8 Cloudy OVC008 65 60     84%     29.91 29.91      
Jul 13 20:53 WSW 5 8 Cloudy OVC007 66 60     81%     29.88 29.88      
Jul 13 20:09 WSW 8 7 Mostly Cloudy BKN008 67 60     79%     29.86        
Jul 13 19:53 WSW 11 7 Mostly Clear FEW007 67 60     79%     29.86 29.85      
Jul 13 18:53 6 8 Clear CLR 71 62     73%   71 29.84 29.83      
Jul 13 17:53 WSW 7 8 Clear CLR 73 62     68%   73 29.84 29.83      
Jul 13 16:53 WSW 9 9 Clear CLR 74 62     66%   74 29.85 29.85      
Jul 13 15:53 W 9 10 Clear CLR 76 62     62%   76 29.86 29.85      
Jul 13 14:53 W 7 10 Clear CLR 77 62     60%   77 29.87 29.86      
Jul 13 13:53 WSW 8 9 Clear CLR 78 63     60%   78 29.88 29.88      
Jul 13 12:53 3 8 Clear CLR 78 63     60%   78 29.88 29.88      
Jul 13 11:53 Calm 6 Haze CLR 76 62     62%   76 29.89 29.89      
Jul 13 10:53 5 6 Haze CLR 73 62     68%   73 29.9 29.89      
Jul 13 09:53 5 4 Haze FEW015 72 62     71%   72 29.88 29.88      
Jul 13 08:53 S 3 7 Clear CLR 69 61     75%     29.87 29.87      
Jul 13 07:53 Calm 7 Clear CLR 67 61     81%     29.86 29.86      
Jul 13 06:53 Calm 7 Clear CLR 66 61     84%     29.84 29.84      
Jul 13 05:53 Calm 8 Clear CLR 66 60     81%     29.83 29.83      
Jul 13 04:53 Calm 9 Clear CLR 65 60     84%     29.82 29.82      
Jul 13 02:53 Calm 10 Clear CLR 66 60     81%     29.82 29.81      
Jul 13 00:53 W 3 10 Clear CLR 67 60     79%     29.83 29.83      
Jul 12 23:53 Calm 10 Clear CLR 67 60     79%     29.83 29.83      
Jul 12 22:53 SW 5 10 Clear CLR 67 60     79%     29.83 29.82      
Jul 12 21:53 WSW 3 10 Clear CLR 67 59     76%     29.82 29.81      
Jul 12 20:53 W 3 10 Clear CLR 67 59     76%     29.81 29.8      
Jul 12 19:53 W 7 10 Clear CLR 69 59     70%     29.8 29.8      
Jul 12 18:53 W 6 10 Clear CLR 71 59     66%   71 29.79 29.79      
Jul 12 17:53 W 10 10 Clear CLR 72 60     66%   72 29.79 29.79      
Jul 12 16:53 W 11 9 Clear CLR 73 61     66%   73 29.81 29.8      
Jul 12 15:53 WSW 13 8 Clear CLR 73 61     66%   73 29.82 29.82      
Jul 12 14:53 WNW 9 10 Clear CLR 76 62     62%   76 29.83 29.83      
Jul 12 13:53 WSW 10 6 Haze CLR 75 62     64%   75 29.85 29.84      
Jul 12 12:53 WSW 11 6 Haze CLR 77 62     60%   77 29.86 29.86      
Jul 12 11:53 W 8 7 Clear CLR 77 62     60%   77 29.87 29.86      
Jul 12 10:53 WSW 8 6 Haze CLR 77 62     60%   77 29.88 29.88      
Jul 12 09:53 Calm 6 Haze CLR 73 60     64%   73 29.89 29.88      
Jul 12 08:53 Calm 5 Haze CLR 69 60     73%     29.9 29.89      
Jul 12 08:37 Calm 5 Haze FEW011 68 60     76%     29.9        
Jul 12 08:04 3 4 Haze OVC010 67 60     79%     29.9        
Jul 12 07:53 Calm 4 Haze OVC009 66 60     81%     29.9 29.89      
Jul 12 06:53 ESE 6 4 Haze OVC009 65 60     84%     29.89 29.89      
Jul 12 05:53 ESE 5 8 Cloudy OVC010 65 59     81%     29.89 29.88      
Jul 12 05:41 Calm 9 Cloudy OVC010 66 60     81%     29.89        
Jul 12 05:27 Calm 10 Cloudy OVC009 66 60     81%     29.89        
Jul 12 04:53 Calm 10 Cloudy OVC012 65 60     84%     29.89 29.88      
Jul 12 04:43 Calm 10 Mostly Cloudy BKN012 65 60     84%     29.89        
Jul 12 03:53 Calm 10 Clear CLR 65 60     84%     29.88 29.88      
Jul 12 02:53 Calm 10 Clear CLR 65 60     84%     29.88 29.88      
Jul 12 01:53 WSW 3 10 Clear CLR 65 60     84%     29.89 29.89      
Jul 12 00:53 Calm 10 Clear CLR 66 60     81%     29.9 29.89      
Jul 11 23:53 WSW 3 10 Mostly Clear FEW010 66 60     81%     29.91 29.91      
Jul 11 22:53 Calm 10 Clear CLR 66 60     81%     29.92 29.91      
Jul 11 21:53 W 6 10 Clear CLR 67 59     76%     29.91 29.91      
Jul 11 20:53 WSW 8 10 Clear CLR 66 59     78%     29.9 29.9      
Jul 11 19:53 W 7 10 Clear CLR 68 59     73%     29.9 29.89      
Jul 11 18:53 WNW 7 7 Clear CLR 69 60     73%     29.9 29.9      
Jul 11 17:53 W 10 6 Clear CLR 72 61     68%   72 29.91 29.91      
Jul 11 16:53 W 13 8 Clear CLR 72 60     66%   72 29.93 29.93      
Jul 11 15:53 WSW 13 10 Clear CLR 72 60     66%   72 29.94 29.94      
Jul 11 14:53 W 13 10 Clear CLR 72 60     66%   72 29.96 29.96      
Jul 11 13:53 WSW 14 10 Clear CLR 73 60     64%   73 29.97 29.97      
Jul 11 12:53 W 11 10 Clear CLR 75 60     60%   75 29.98 29.98      
Jul 11 10:53 WSW 7 10 Clear CLR 75 61     62%   75 30 30      
Jul 11 08:53 Calm 8 Clear CLR 69 60     73%     30.02 30.01      
Jul 11 07:53 Calm 8 Clear CLR 67 60     79%     30.02 30.01      
Jul 11 06:53 WNW 3 9 Mostly Clear FEW007 65 59     81%     30.01 30.01      
Jul 11 06:29 Calm 9 Mostly Cloudy BKN007 64 59     84%     30.01        
Jul 11 06:03 Calm 9 Mostly Clear FEW008 64 59     84%     30        
Jul 11 05:53 Calm 10 Clear CLR 64 59     84%     30 30      
Jul 11 04:53 Calm 10 Clear CLR 64 59     84%     29.99 29.98      
Jul 11 03:53 Calm 10 Clear CLR 64 59     84%     29.98 29.98      
Jul 11 02:53 W 7 10 Clear CLR 64 59     84%     29.98 29.98      
Jul 10 23:53 WSW 5 10 Clear CLR 65 59     81%     30 30      
Jul 10 22:53 WSW 6 10 Clear CLR 66 59     78%     30.01 30.01      
Jul 10 21:53 WSW 7 10 Clear CLR 66 59     78%     30.01 30.01      
Jul 10 20:53 WSW 5 10 Mostly Clear FEW010 64 59     84%     30 29.99      
Jul 10 18:53 WSW 7 9 Clear CLR 69 59     70%     30 29.99      
Jul 10 17:53 W 10 10 Clear CLR 70 60     71%     30 29.99      
Jul 10 15:53 W 13 10 Clear CLR 72 59     64%   72 30.02 30.02      
Jul 10 13:36 W 11 1 Haze CLR 72 59     64%   72 30.05        
Jul 10 11:53 WSW 10 9 Clear CLR 72 59     64%   72 30.06 30.06      
Jul 10 10:53 W 8 9 Clear CLR 72 59     64%   72 30.06 30.06      
Jul 10 09:53 WSW 3 7 Clear   69 59     70%     30.06 30.06      
Jul 10 09:28 W 6 6 Haze SCT013 68 59     73%     30.06        
Jul 10 07:26 W 5 6 Haze BKN010 OVC015 64 58     81%     30.05        
Jul 10 06:53 WSW 3 7 Cloudy OVC009 64 58     81%     30.05 30.04      
Jul 10 05:53 W 5 9 Cloudy OVC009 64 58     81%     30.04 30.04      
Jul 10 05:36 W 5 10 Cloudy OVC009 64 58     81%     30.04        
Jul 10 05:14 WSW 5 10 Mostly Cloudy BKN010 BKN017 64 58     81%     30.03        
Jul 10 04:53 W 6 10 Mostly Clear FEW017 64 58     81%     30.03 30.03      
Jul 10 02:53 WSW 5 10 Clear CLR 64 58     81%     30.02 30.02      
Jul 10 01:53 W 3 10 Clear CLR 64 58     81%     30.03 30.02      
Jul 10 00:53 W 8 10 Clear CLR 64 58     81%     30.02 30.02      
Jul 09 23:53 WSW 5 10 Clear CLR 64 58     81%     30.03 30.02      
Jul 09 22:53 WSW 6 10 Clear CLR 65 58     78%     30.03 30.02      
Jul 09 21:53 WSW 8 10 Mostly Clear FEW010 65 58     78%     30.02 30.02      
Jul 09 20:53 WSW 10 10 Clear CLR 66 59     78%     30.01 30.01      
Jul 09 19:53 W 10 10 Clear CLR 68 58     70%     30 30      
Jul 09 18:53 WNW 8 10 Clear CLR 70 58     66%     29.99 29.99      
Jul 09 17:53 W 10 10 Clear CLR 73 57     57%   73 29.98 29.98      
Jul 09 16:53 W 9 10 Clear CLR 72 58     61%   72 29.99 29.98      
Jul 09 14:53 WSW 13 10 Clear CLR 73 58     59%   73 30.01 30      
Jul 09 13:53 WSW 13 10 Clear CLR 74 58     57%   74 30.02 30.02      
Jul 09 12:53 W 9 10 Clear CLR 74 58     57%   74 30.03 30.03      
Jul 09 11:53 6 10 Clear CLR 72 58     61%   72 30.04 30.03      
Jul 09 11:37 WSW 7 6 Haze FEW025 73 58     59%   73 30.04        
Jul 09 11:32 WSW 8 1 Haze FEW025 73 58     59%   73 30.04        
Jul 09 11:23 5 10 Mostly Clear FEW025 71 58     63%   71 30.04        
Jul 09 10:53 W 8 10 Mostly Cloudy BKN025 71 58     63%   71 30.05 30.04      
Jul 09 09:53 W 8 10 Cloudy OVC028 70 58     66%     30.05 30.04      
Jul 09 07:53 SE 3 10 Cloudy OVC026 67 56     68%     30.03 30.03      
Jul 09 06:53 Calm 10 Cloudy OVC024 67 56     68%     30.02 30.01      
Jul 09 05:53 Calm 10 Cloudy OVC024 66 56     70%     30.01 30.01      
Jul 09 04:53 Calm 10 Cloudy OVC023 65 56     73%     30 30      
Jul 09 03:53 NNW 3 10 Cloudy OVC022 65 56     73%     30 29.99      
Jul 09 02:53 WNW 3 10 Cloudy OVC021 65 56     73%     30 29.99      
Jul 09 01:53 WNW 5 10 Cloudy OVC019 65 56     73%     30.01 30      
Jul 09 00:53 W 5 10 Cloudy OVC020 65 56     73%     30.01 30.01      
Jul 08 23:53 WSW 6 10 Cloudy OVC019 65 56     73%     30.02 30.02      
Jul 08 23:27 WSW 7 10 Mostly Cloudy BKN021 65 57     76%     30.02        
Jul 08 23:07 W 7 10 Partly Cloudy SCT015 65 57     76%     30.02        
Jul 08 22:44 WSW 7 10 Mostly Cloudy BKN014 65 57     76%     30.02        
Jul 08 21:53 WSW 7 10 Clear CLR 65 57     76%     30.01 30.01      
Jul 08 20:53 WSW 8 10 Clear CLR 66 57     73%     30 29.99      
Jul 08 19:53 W 8 10 Clear CLR 67 57     71%     29.99 29.98      
Jul 08 18:53 W 11 10 Partly Cloudy SCT018 68 57     68%     29.99 29.98      
Jul 08 17:53 W 9 10 Mostly Cloudy BKN019 70 57     63%     29.98 29.98      
Jul 08 17:14 WSW 9 10 Mostly Cloudy BKN022 70 58     66%     29.98        
Jul 08 16:53 WSW 10 10 Partly Cloudy SCT025 71 58     63%   71 29.98 29.98      
Jul 08 14:53 W 11 10 Clear CLR 73 56     55%   73 29.99 29.99      
Jul 08 13:53 W 8 10 Mostly Cloudy BKN038 73 55     53%   73 30 29.99      
Jul 08 12:53 Calm 10 Cloudy OVC032 72 54     53%   71 30.01 30.01      
Jul 08 12:36 N 5 10 Cloudy OVC030 71 54     55%   70 30.01        
Jul 08 11:53 3 10 Cloudy OVC027 68 54     61%     30.02 30.01      
Jul 08 10:53 Calm 10 Cloudy OVC026 67 55     66%     30.02 30.01      
Jul 08 09:53 Calm 10 Cloudy OVC025 66 54     65%     30.02 30.01      
Jul 08 08:53 E 6 10 Cloudy OVC025 67 54     63%     30.02 30.01      
Jul 08 07:53 ESE 8 10 Cloudy OVC028 66 54     65%     30.01 30.01      
Jul 08 06:53 E 7 10 Cloudy OVC027 66 54     65%     30 29.99      
Jul 08 05:53 SE 5 10 Cloudy OVC025 65 54     68%     29.98 29.98      
Jul 08 04:53 ESE 8 10 Cloudy OVC026 65 55     70%     29.96 29.96      
Jul 08 03:53 SE 7 10 Cloudy OVC027 65 54     68%     29.96 29.96      
Jul 08 02:53 ESE 6 10 Cloudy OVC026 65 55     70%     29.96 29.96      
Jul 08 01:53 ESE 7 10 Cloudy OVC026 66 55     68%     29.97 29.97      
Jul 08 00:53 SE 6 10 Cloudy OVC026 66 55     68%     29.98 29.97      
Jul 07 23:53 SE 6 10 Cloudy OVC018 67 57     71%     29.99 29.98      
Jul 07 22:53 Calm 10 Cloudy OVC020 67 58     73%     29.99 29.98      
Jul 07 21:53 Calm 10 Cloudy OVC020 66 58     75%     29.98 29.98      
Jul 07 21:04 WSW 6 10 Cloudy SCT013 OVC022 66 58     75%     29.97        
Jul 07 20:53 6 10 Cloudy BKN014 OVC022 66 58     75%     29.97 29.96      
Jul 07 20:26 W 6 10 Mostly Cloudy BKN014 67 58     73%     29.96        
Jul 07 20:12 SW 6 10 Partly Cloudy SCT014 67 58     73%     29.96        
Jul 07 19:53 WSW 8 10 Mostly Cloudy BKN014 67 58     73%     29.95 29.95      
Jul 07 19:43 WSW 9 10 Mostly Cloudy BKN014 67 59     76%     29.95        
Jul 07 18:53 W 10 10 Clear CLR 69 59     70%     29.94 29.94      
Jul 07 17:53 W 8 10 Clear   72 58     61%   72 29.93 29.93      
Jul 07 16:53 W 9 10 Clear CLR 72 57     59%   72 29.94 29.94      
Jul 07 15:53 W 10 10 Clear CLR 73 57     57%   73 29.95 29.95      
Jul 07 14:53 WSW 11 10 Mostly Clear FEW025 72 57     59%   72 29.96 29.96      
Jul 07 13:53 3 10 Mostly Clear FEW025 72 57     59%   72 29.97 29.96      
Jul 07 13:49 W 6 10 Partly Cloudy SCT025 72 57     60%   71 29.97        
Jul 07 12:53 Calm 10 Cloudy OVC020 68 57     68%     29.99 29.99      
Jul 07 12:14 3 10 Cloudy OVC015 67 57     71%     30        
Jul 07 11:53 5 10 Cloudy OVC013 66 57     73%     30.01 30      
Jul 07 11:30 S 5 9 Cloudy OVC014 65 58     78%     30.01        
Jul 07 10:53 ESE 8 10 Cloudy OVC016 67 58     73%     30 30      
Jul 07 10:25 SE 7 10 Cloudy OVC015 66 57     73%     30        
Jul 07 09:53 ESE 6 10 Cloudy OVC013 66 57     73%     29.99 29.99      
Jul 07 08:53 N 3 10 Clear   65 57     76%     30 29.99      
Jul 07 07:53 ESE 6 9 Cloudy OVC012 64 57     78%     30 29.99      
Jul 07 06:53 SE 6 10 Cloudy OVC013 64 57     78%     29.98 29.98      
Jul 07 05:53 ESE 3 10 Cloudy OVC012 64 57     78%     29.97 29.96      
Jul 07 04:53 ESE 3 10 Cloudy OVC012 64 57     78%     29.96 29.96      
Jul 07 03:53 E 6 10 Cloudy OVC013 65 57     76%     29.96 29.96      
Jul 07 02:53 E 5 9 Cloudy OVC012 65 58     78%     29.97 29.96      
Jul 07 01:53 SE 7 9 Cloudy OVC014 65 58     78%     29.98 29.97      
Jul 07 00:53 Calm 8 Cloudy OVC013 65 58     78%     29.98 29.98      
Jul 06 23:53 Calm 8 Cloudy OVC013 65 58     78%     29.99 29.98      
Jul 06 22:53 WSW 5 9 Cloudy OVC012 65 58     78%     29.98 29.98      
Jul 06 21:53 W 5 9 Cloudy OVC011 65 58     78%     29.98 29.97      
Jul 06 20:53 W 6 9 Cloudy OVC011 65 58     78%     29.97 29.96      
Jul 06 19:53 W 8 8 Cloudy OVC011 66 58     75%     29.96 29.96      
Jul 06 19:39 WSW 8 8 Mostly Cloudy BKN012 65 57     76%     29.96        
Jul 06 18:53 WSW 9 10 Mostly Clear FEW012 66 57     73%     29.95 29.95      
Jul 06 17:53 WSW 13 10 Clear CLR 68 58     70%     29.96 29.95      
Jul 06 16:53 WSW 14 10 Clear CLR 69 58     68%     29.97 29.96      
Jul 06 15:53 WSW 11 10 Clear CLR 71 58     63%   71 29.98 29.97      
Jul 06 14:53 WSW 11 10 Clear CLR 71 58     63%   71 29.99 29.99      
Jul 06 12:53 3 6 Haze SCT025 73 59     61%   73 30.01 30.01      
Jul 06 11:53 6 5 Haze OVC019 69 59     70%     30.03 30.02      
Jul 06 10:53 W 8 5 Haze OVC017 68 59     73%     30.03 30.03      
Jul 06 08:53 Calm 6 Clear   67 58     73%     30.03 30.03      
Jul 06 08:44 Calm 6 Haze OVC015 66 58     75%     30.03        
Jul 06 07:53 Calm 5 Haze OVC012 66 58     75%     30.02 30.02      
Jul 06 06:53 Calm 5 Haze OVC012 65 58     78%     30.02 30.02      
Jul 06 05:53 Calm 6 Haze OVC010 65 58     78%     30.02 30.02      
Jul 06 04:53 Calm 7 Cloudy OVC010 64 58     81%     30.01 30.01      
Jul 06 03:53 SE 3 7 Cloudy OVC010 64 58     81%     30.01 30      
Jul 06 02:53 Calm 6 Haze OVC010 64 58     81%     30.01 30.01      
Jul 06 01:53 WSW 3 9 Cloudy OVC010 64 58     81%     30.01 30.01      
Jul 06 00:50 WSW 3 10 Mostly Cloudy BKN011 BKN018 64 58     81%     30.01 30.01      
Jul 06 00:49 WSW 3 10 Mostly Cloudy BKN011 BKN018 64 57     77%     30.01        
Jul 05 23:53 WSW 6 10 Clear CLR 64 58     81%     30.02 30.01      
Jul 05 23:08 WSW 6 10 Mostly Clear FEW010 65 58     78%     30.01        
Jul 05 22:53 W 6 10 Mostly Cloudy BKN010 64 58     81%     30.01 30.01      
Jul 05 21:53 W 7 10 Mostly Cloudy BKN011 65 59     81%     30 30      
Jul 05 21:08 WNW 6 10 Partly Cloudy SCT012 66 58     75%     29.99        
Jul 05 20:53 WNW 6 10 Mostly Cloudy BKN012 66 59     78%     29.99 29.98      
Jul 05 20:49 W 8 10 Mostly Cloudy BKN012 66 59     78%     29.99        
Jul 05 20:18 W 8 9 Partly Cloudy SCT012 67 59     76%     29.98        
Jul 05 19:53 W 13 9 Mostly Cloudy BKN013 68 59     73%     29.98 29.97      
Jul 05 18:53 W 13 8 Mostly Cloudy BKN013 70 59     68%     29.97 29.96      
Jul 05 18:51 W 11 8 Mostly Cloudy BKN013 70 59     69%     29.97        
Jul 05 17:53 W 10 10 Clear CLR 71 59     66%   71 29.96 29.96      
Jul 05 16:53 W 13 10 Clear CLR 72 59     64%   72 29.98 29.97      
Jul 05 15:53 W 8 10 Clear CLR 73 59     61%   73 29.99 29.98      
Jul 05 14:53 W 10 10 Clear CLR 73 58     59%   73 30 29.99      
Jul 05 13:53 WSW 11 10 Clear CLR 73 58     59%   73 30.01 30.01      
Jul 05 12:53 W 11 10 Clear CLR 72 58     61%   72 30.03 30.02      
Jul 05 11:53 W 6 10 Mostly Clear FEW031 73 56     55%   73 30.03 30.02      
Jul 05 11:33 WSW 6 10 Mostly Cloudy SCT025 BKN032 72 56     57%   72 30.03        
Jul 05 10:53 Calm 9 Cloudy OVC024 70 56     61%     30.03 30.03      
Jul 05 09:53 Calm 8 Cloudy OVC018 67 57     71%     30.03 30.02      
Jul 05 08:53 S 3 7 Cloudy OVC016 66 57     73%     30.02 30.01      
Jul 05 07:53 S 3 6 Haze OVC015 65 57     76%     30.01 30      
Jul 05 06:53 Calm 5 Haze OVC014 65 57     76%     30 29.99      
Jul 05 05:53 Calm 8 Cloudy OVC014 65 57     76%     29.99 29.98      
Jul 05 05:16 Calm 9 Cloudy OVC013 65 57     76%     29.98        
Jul 05 05:08 Calm 2.5 Haze OVC013 64 57     78%     29.98        
Jul 05 04:53 Calm 10 Cloudy OVC014 64 57     78%     29.97 29.97      
May 15 07:44 SW 5 10 Mostly Cloudy BKN019 59 52     78%     30.05        
May 14 09:16 Calm 10 Partly Cloudy SCT019 61 52     72%     29.99        
May 14 04:53 Calm 10 Clear CLR 58 52     81%     29.96 29.96      
May 13 13:53 3 10 Mostly Cloudy BKN033 66 51     59%     30.03 30.02      
May 13 09:53 W 7 10 Cloudy OVC027 61 51     70%     30.06 30.06      
May 12 09:53 SSE 6 10 Cloudy OVC033 61 50     67%     29.98 29.98      
May 12 00:53 ESE 7 10 Cloudy SCT028 OVC036 60 55     83%     29.89 29.88      
May 11 22:40 6 10 Cloudy FEW019 BKN030 OVC041 61 55     81%     29.88        
May 11 18:53 ESE 8 10 Cloudy BKN021 OVC033 62 53     72%     29.82 29.82      
Jun 12 02:53 E 3 10 Clear CLR 59 52     78%     29.97 29.97      
Jun 11 14:53 SW 11 10 Partly Cloudy FEW024 SCT029 69 54     59%     29.92 29.92      
Jun 11 03:53 SE 6 10 Cloudy OVC031 62 56     80%     29.86 29.85 0    
Jun 11 03:44 SE 6 10 Cloudy OVC031 62 56     80%     29.86   0    
Jun 10 21:53 WSW 7 10 Mostly Cloudy BKN025 64 56     75%     29.88 29.87      
Jun 10 20:15 WSW 8 10 Mostly Cloudy BKN025 65 55     70%     29.85        
Jun 10 12:53 S 9 10 Mostly Clear FEW029 69 56     63%     29.88 29.88      
Jun 10 08:53 SE 7 10 Cloudy OVC027 64 56     75%     29.9 29.89      
Jun 09 18:53 WSW 15 10 Mostly Cloudy BKN011 BKN014 66 61     84%     29.89 29.89      
Jun 09 00:53 SE 3 10 Clear CLR 61 57     87%     29.95 29.94      
Jun 08 08:53 WSW 7 10 Cloudy BKN011 OVC015 62 59     90%     30.01 30.01 0    
Jun 08 07:53 W 6 10 Cloudy SCT008 OVC015 62 59     90%     30 30      
Jun 08 01:04 WSW 6 10 Cloudy BKN007 OVC012 61 59     93%     29.99        
Jun 08 00:27 WSW 3 9 Cloudy SCT006 OVC013 61 60     97%     29.99   0    
Jun 06 09:53 S 5 9 Cloudy OVC014 64 59     84%     29.95 29.95